CYP110 LCLK-LLBG

Flight info

Callsign CYP110
Flight time 0h 44m
Altitude 25000
Route EMEDA DCT TUZIB L189 ZUKKO
Aircraft A320/M-SDE3FGHIRWY/LB1

Departure

Time 2026-05-07 14:29
Airport Larnaca International Airport (LCLK)

Arrival

Time 2026-05-07 15:13
Airport Ben Gurion International Airport (LLBG)
Time Latitude Longitude Altitude Speed Heading
2026-05-07 14:06 34.86949 33.61142 20 ft 0 kts 229°
2026-05-07 14:18 34.86958 33.61156 21 ft 4 kts 235°
2026-05-07 14:18 34.86971 33.61184 23 ft 4 kts 253°
2026-05-07 14:18 34.86976 33.61210 24 ft 4 kts 252°
2026-05-07 14:18 34.86988 33.61234 22 ft 4 kts 198°
2026-05-07 14:19 34.87009 33.61230 20 ft 4 kts 137°
2026-05-07 14:19 34.87023 33.61213 20 ft 0 kts 135°
2026-05-07 14:21 34.87023 33.61214 20 ft 1 kts 135°
2026-05-07 14:21 34.86987 33.61256 22 ft 12 kts 135°
2026-05-07 14:22 34.86926 33.61330 18 ft 15 kts 135°
2026-05-07 14:22 34.86895 33.61443 19 ft 15 kts 54°
2026-05-07 14:22 34.86966 33.61530 18 ft 14 kts 44°
2026-05-07 14:22 34.87027 33.61606 20 ft 11 kts 45°
2026-05-07 14:23 34.87074 33.61662 21 ft 8 kts 45°
2026-05-07 14:23 34.87126 33.61726 22 ft 18 kts 45°
2026-05-07 14:23 34.87249 33.61876 22 ft 27 kts 45°
2026-05-07 14:23 34.87387 33.62048 19 ft 30 kts 45°
2026-05-07 14:24 34.87536 33.62229 17 ft 32 kts 45°
2026-05-07 14:24 34.87690 33.62419 18 ft 29 kts 45°
2026-05-07 14:24 34.87837 33.62597 20 ft 29 kts 45°
2026-05-07 14:24 34.87982 33.62772 20 ft 31 kts 45°
2026-05-07 14:25 34.88135 33.62958 19 ft 32 kts 44°
2026-05-07 14:25 34.88297 33.63157 18 ft 33 kts 46°
2026-05-07 14:25 34.88428 33.63319 17 ft 24 kts 45°
2026-05-07 14:25 34.88438 33.63385 19 ft 6 kts 129°
2026-05-07 14:26 34.88416 33.63416 19 ft 4 kts 134°
2026-05-07 14:26 34.88409 33.63425 19 ft 0 kts 133°
2026-05-07 14:27 34.88405 33.63430 21 ft 3 kts 133°
2026-05-07 14:27 34.88375 33.63470 19 ft 9 kts 133°
2026-05-07 14:27 34.88309 33.63518 17 ft 13 kts 186°
2026-05-07 14:28 34.88265 33.63479 17 ft 0 kts 225°
2026-05-07 14:28 34.88256 33.63468 16 ft 15 kts 225°
2026-05-07 14:29 34.87984 33.63146 19 ft 91 kts 225°
2026-05-07 14:29 34.87394 33.62419 20 ft 149 kts 224°
2026-05-07 14:29 34.86642 33.61506 563 ft 152 kts 223°
2026-05-07 14:29 34.85892 33.60589 1259 ft 153 kts 223°
2026-05-07 14:30 34.85145 33.59674 1860 ft 157 kts 226°
2026-05-07 14:30 34.84324 33.58666 2164 ft 178 kts 226°
2026-05-07 14:30 34.83392 33.57521 2464 ft 202 kts 226°
2026-05-07 14:30 34.82336 33.56256 2760 ft 225 kts 220°
2026-05-07 14:31 34.80840 33.55527 3089 ft 247 kts 180°
2026-05-07 14:31 34.79136 33.56102 3484 ft 266 kts 147°
2026-05-07 14:31 34.77676 33.57496 4233 ft 272 kts 135°
2026-05-07 14:31 34.76318 33.59141 5085 ft 278 kts 131°
2026-05-07 14:32 34.74953 33.60842 5907 ft 284 kts 133°
2026-05-07 14:32 34.73532 33.62529 6752 ft 288 kts 134°
2026-05-07 14:32 34.72045 33.64189 7602 ft 290 kts 136°
2026-05-07 14:32 34.70527 33.65796 8468 ft 293 kts 137°
2026-05-07 14:33 34.68958 33.67399 9342 ft 295 kts 138°
2026-05-07 14:33 34.67361 33.69000 10181 ft 298 kts 139°
2026-05-07 14:33 34.65714 33.70637 10479 ft 320 kts 140°
2026-05-07 14:33 34.63913 33.72424 10680 ft 344 kts 140°
2026-05-07 14:34 34.62590 33.73560 10905 ft 355 kts 148°
2026-05-07 14:34 34.59566 33.75237 11728 ft 364 kts 159°
2026-05-07 14:34 34.57163 33.76306 12420 ft 369 kts 159°
2026-05-07 14:34 34.55554 33.77024 12870 ft 372 kts 159°
2026-05-07 14:35 34.52302 33.78481 13768 ft 378 kts 159°
2026-05-07 14:35 34.50655 33.79219 14171 ft 381 kts 160°
2026-05-07 14:35 34.48101 33.80167 14733 ft 385 kts 169°
2026-05-07 14:35 34.45422 33.80556 15277 ft 389 kts 178°
2026-05-07 14:36 34.42696 33.80756 15855 ft 393 kts 178°
2026-05-07 14:36 34.39988 33.80960 16420 ft 397 kts 178°
2026-05-07 14:36 34.37203 33.81172 16989 ft 402 kts 179°
2026-05-07 14:36 34.34388 33.81390 17553 ft 406 kts 179°
2026-05-07 14:37 34.31549 33.81615 18127 ft 410 kts 179°
2026-05-07 14:37 34.25824 33.82070 19137 ft 418 kts 179°
2026-05-07 14:37 34.22907 33.82295 19659 ft 421 kts 179°
2026-05-07 14:38 34.19950 33.82520 20179 ft 424 kts 179°
2026-05-07 14:38 34.17015 33.82744 20679 ft 428 kts 180°
2026-05-07 14:38 34.14012 33.82974 21183 ft 431 kts 180°
2026-05-07 14:38 34.11045 33.83205 21665 ft 434 kts 180°
2026-05-07 14:39 34.08005 33.83443 22142 ft 437 kts 180°
2026-05-07 14:39 34.04943 33.83682 22611 ft 440 kts 180°
2026-05-07 14:39 34.01912 33.83916 23037 ft 443 kts 180°
2026-05-07 14:39 33.98805 33.84153 23475 ft 447 kts 180°
2026-05-07 14:40 33.95682 33.84388 23869 ft 449 kts 180°
2026-05-07 14:40 33.92583 33.84619 24239 ft 452 kts 180°
2026-05-07 14:40 33.89435 33.84853 24605 ft 453 kts 180°
2026-05-07 14:40 33.86274 33.85090 24956 ft 455 kts 180°
2026-05-07 14:41 33.83094 33.85329 25073 ft 455 kts 180°
2026-05-07 14:41 33.79983 33.85567 25103 ft 452 kts 180°
2026-05-07 14:41 33.76834 33.85816 25098 ft 452 kts 180°
2026-05-07 14:41 33.73689 33.86066 25099 ft 451 kts 180°
2026-05-07 14:42 33.70552 33.86312 25098 ft 451 kts 180°
2026-05-07 14:42 33.67456 33.86554 25097 ft 451 kts 180°
2026-05-07 14:42 33.64319 33.86798 25098 ft 451 kts 180°
2026-05-07 14:42 33.61182 33.87042 25097 ft 451 kts 180°
2026-05-07 14:43 33.58040 33.87287 25082 ft 451 kts 180°
2026-05-07 14:43 33.54939 33.87530 25095 ft 451 kts 180°
2026-05-07 14:43 33.51789 33.87776 25096 ft 451 kts 180°
2026-05-07 14:43 33.48645 33.88019 25098 ft 451 kts 180°
2026-05-07 14:44 33.45540 33.88263 25101 ft 451 kts 180°
2026-05-07 14:44 33.42405 33.88512 25102 ft 451 kts 180°
2026-05-07 14:44 33.39256 33.88758 25102 ft 451 kts 180°
2026-05-07 14:44 33.36125 33.88999 25102 ft 451 kts 180°
2026-05-07 14:45 33.32989 33.89239 25097 ft 451 kts 180°
2026-05-07 14:45 33.29852 33.89478 25097 ft 451 kts 180°
2026-05-07 14:45 33.26771 33.89713 24910 ft 442 kts 180°
2026-05-07 14:45 33.23716 33.89949 24676 ft 437 kts 180°
2026-05-07 14:46 33.20680 33.90183 24435 ft 435 kts 180°
2026-05-07 14:46 33.17715 33.90411 24061 ft 430 kts 180°
2026-05-07 14:46 33.14725 33.90635 23515 ft 428 kts 180°
2026-05-07 14:46 33.11825 33.90847 22969 ft 425 kts 180°
2026-05-07 14:47 33.08880 33.91060 22500 ft 420 kts 180°
2026-05-07 14:47 33.06010 33.91267 22017 ft 417 kts 180°
2026-05-07 14:47 33.03115 33.91479 21545 ft 413 kts 180°
2026-05-07 14:47 33.00247 33.91691 21085 ft 410 kts 180°
2026-05-07 14:48 32.97406 33.91905 20609 ft 407 kts 179°
2026-05-07 14:48 32.94611 33.92113 20137 ft 404 kts 180°
2026-05-07 14:48 32.91800 33.92315 19652 ft 402 kts 180°
2026-05-07 14:48 32.89007 33.92513 19159 ft 400 kts 179°
2026-05-07 14:49 32.86251 33.92709 18671 ft 399 kts 179°
2026-05-07 14:49 32.83476 33.92913 18139 ft 399 kts 179°
2026-05-07 14:49 32.80700 33.93120 17614 ft 396 kts 179°
2026-05-07 14:49 32.77977 33.93321 17060 ft 395 kts 179°
2026-05-07 14:50 32.75237 33.93524 16571 ft 392 kts 179°
2026-05-07 14:50 32.72510 33.93725 16069 ft 390 kts 179°
2026-05-07 14:50 32.69808 33.93922 15572 ft 388 kts 179°
2026-05-07 14:50 32.67118 33.94118 15074 ft 385 kts 179°
2026-05-07 14:51 32.64472 33.94314 14584 ft 383 kts 179°
2026-05-07 14:51 32.61820 33.94508 14090 ft 381 kts 179°
2026-05-07 14:51 32.59189 33.94842 13557 ft 380 kts 170°
2026-05-07 14:51 32.56667 33.95812 13044 ft 379 kts 157°
2026-05-07 14:52 32.54420 33.97402 12754 ft 371 kts 144°
2026-05-07 14:52 32.52566 33.99424 12510 ft 363 kts 135°
2026-05-07 14:52 32.50832 34.01586 12242 ft 360 kts 135°
2026-05-07 14:52 32.49106 34.03739 11983 ft 358 kts 135°
2026-05-07 14:53 32.47384 34.05885 11725 ft 358 kts 135°
2026-05-07 14:53 32.45692 34.07991 11470 ft 354 kts 135°
2026-05-07 14:53 32.44015 34.10078 11333 ft 341 kts 135°
2026-05-07 14:53 32.42489 34.12159 11210 ft 330 kts 126°
2026-05-07 14:54 32.41237 34.14346 11075 ft 319 kts 125°
2026-05-07 14:54 32.39997 34.16516 10771 ft 316 kts 125°
2026-05-07 14:54 32.38766 34.18665 10387 ft 316 kts 126°
2026-05-07 14:54 32.37536 34.20815 10068 ft 312 kts 125°
2026-05-07 14:55 32.36322 34.22938 9734 ft 309 kts 125°
2026-05-07 14:55 32.35140 34.25002 9453 ft 304 kts 125°
2026-05-07 14:55 32.33958 34.27067 9210 ft 302 kts 124°
2026-05-07 14:55 32.32785 34.29118 8971 ft 300 kts 125°
2026-05-07 14:56 32.31609 34.31170 8731 ft 301 kts 125°
2026-05-07 14:56 32.30439 34.33202 8488 ft 297 kts 125°
2026-05-07 14:56 32.29286 34.35197 8262 ft 295 kts 124°
2026-05-07 14:56 32.28130 34.37197 8022 ft 293 kts 124°
2026-05-07 14:57 32.26979 34.39193 7790 ft 293 kts 124°
2026-05-07 14:57 32.25830 34.41184 7559 ft 292 kts 124°
2026-05-07 14:57 32.24691 34.43157 7328 ft 292 kts 124°
2026-05-07 14:57 32.23552 34.45128 7087 ft 290 kts 124°
2026-05-07 14:58 32.22412 34.47100 6924 ft 287 kts 124°
2026-05-07 14:58 32.21284 34.49044 6805 ft 286 kts 124°
2026-05-07 14:58 32.20166 34.50965 6684 ft 286 kts 124°
2026-05-07 14:58 32.19028 34.52921 6554 ft 287 kts 124°
2026-05-07 14:59 32.17907 34.54847 6427 ft 285 kts 124°
2026-05-07 14:59 32.16785 34.56777 6298 ft 285 kts 124°
2026-05-07 14:59 32.15695 34.58727 6170 ft 283 kts 122°
2026-05-07 14:59 32.14667 34.60711 6045 ft 283 kts 121°
2026-05-07 15:00 32.13675 34.62683 5919 ft 282 kts 120°
2026-05-07 15:00 32.12673 34.64690 5798 ft 283 kts 120°
2026-05-07 15:00 32.11673 34.66684 5656 ft 281 kts 120°
2026-05-07 15:00 32.10683 34.68643 5546 ft 279 kts 120°
2026-05-07 15:01 32.09684 34.70606 5419 ft 278 kts 120°
2026-05-07 15:01 32.08685 34.72564 5295 ft 272 kts 120°
2026-05-07 15:01 32.07742 34.74405 5179 ft 258 kts 121°
2026-05-07 15:01 32.06801 34.76167 5059 ft 248 kts 129°
2026-05-07 15:02 32.05575 34.77560 5004 ft 244 kts 147°
2026-05-07 15:02 32.04095 34.78532 5010 ft 243 kts 154°
2026-05-07 15:02 32.02608 34.79436 5009 ft 243 kts 153°
2026-05-07 15:02 32.01105 34.80356 5009 ft 242 kts 153°
2026-05-07 15:03 31.99605 34.81280 5010 ft 243 kts 151°
2026-05-07 15:03 31.98270 34.82488 4988 ft 245 kts 134°
2026-05-07 15:03 31.97160 34.83983 4919 ft 245 kts 131°
2026-05-07 15:03 31.96040 34.85499 4851 ft 244 kts 131°
2026-05-07 15:04 31.94920 34.87011 4785 ft 245 kts 131°
2026-05-07 15:04 31.93809 34.88505 4719 ft 244 kts 131°
2026-05-07 15:04 31.92687 34.90010 4657 ft 243 kts 131°
2026-05-07 15:04 31.91568 34.91510 4593 ft 243 kts 131°
2026-05-07 15:05 31.90467 34.92983 4527 ft 241 kts 131°
2026-05-07 15:05 31.89367 34.94487 4463 ft 243 kts 126°
2026-05-07 15:05 31.88476 34.96176 4400 ft 242 kts 120°
2026-05-07 15:05 31.87625 34.97867 4326 ft 243 kts 120°
2026-05-07 15:06 31.86759 34.99575 4278 ft 242 kts 120°
2026-05-07 15:06 31.85893 35.01283 4210 ft 240 kts 120°
2026-05-07 15:06 31.85044 35.02957 4142 ft 237 kts 120°
2026-05-07 15:06 31.84194 35.04632 4082 ft 239 kts 119°
2026-05-07 15:07 31.83634 35.06393 4011 ft 227 kts 92°
2026-05-07 15:07 31.83829 35.08158 3964 ft 213 kts 63°
2026-05-07 15:07 31.84510 35.09673 3909 ft 208 kts 54°
2026-05-07 15:07 31.85544 35.10748 3898 ft 196 kts 16°
2026-05-07 15:08 31.86857 35.10857 3821 ft 188 kts 342°
2026-05-07 15:08 31.87978 35.10185 3772 ft 181 kts 329°
2026-05-07 15:08 31.89079 35.09466 3721 ft 181 kts 329°
2026-05-07 15:08 31.90024 35.08490 3657 ft 181 kts 308°
2026-05-07 15:09 31.90713 35.07216 3533 ft 185 kts 302°
2026-05-07 15:09 31.91376 35.05947 3444 ft 185 kts 303°
2026-05-07 15:09 31.92045 35.04665 3255 ft 182 kts 304°
2026-05-07 15:09 31.92709 35.03393 3009 ft 181 kts 302°
2026-05-07 15:10 31.93373 35.02123 2773 ft 179 kts 303°
2026-05-07 15:10 31.94013 35.00897 2516 ft 176 kts 304°
2026-05-07 15:10 31.94655 34.99667 2265 ft 173 kts 304°
2026-05-07 15:10 31.95274 34.98481 2018 ft 170 kts 307°
2026-05-07 15:11 31.95876 34.97324 1770 ft 159 kts 307°
2026-05-07 15:11 31.96426 34.96268 1554 ft 144 kts 307°
2026-05-07 15:11 31.96934 34.95294 1364 ft 136 kts 307°
2026-05-07 15:11 31.97421 34.94362 1186 ft 131 kts 308°
2026-05-07 15:12 31.97898 34.93449 996 ft 131 kts 308°
2026-05-07 15:12 31.98372 34.92544 820 ft 130 kts 306°
2026-05-07 15:12 31.98845 34.91633 676 ft 130 kts 307°
2026-05-07 15:12 31.99322 34.90719 478 ft 130 kts 306°
2026-05-07 15:13 31.99790 34.89824 258 ft 129 kts 307°
2026-05-07 15:13 32.00257 34.88929 137 ft 121 kts 306°
2026-05-07 15:13 32.00631 34.88213 120 ft 79 kts 300°
2026-05-07 15:13 32.00825 34.87832 118 ft 38 kts 301°
2026-05-07 15:14 32.00954 34.87589 122 ft 32 kts 303°
2026-05-07 15:14 32.01040 34.87366 119 ft 29 kts 285°
2026-05-07 15:14 32.01069 34.87149 120 ft 18 kts 270°
2026-05-07 15:14 32.01023 34.87052 116 ft 11 kts 174°
2026-05-07 15:15 32.00976 34.87107 119 ft 9 kts 120°
2026-05-07 15:15 32.00947 34.87168 117 ft 8 kts 120°
2026-05-07 15:15 32.00921 34.87220 118 ft 7 kts 120°
2026-05-07 15:15 32.00899 34.87264 119 ft 7 kts 122°
2026-05-07 15:16 32.00855 34.87338 115 ft 12 kts 138°
2026-05-07 15:16 32.00784 34.87335 118 ft 10 kts 205°
2026-05-07 15:16 32.00724 34.87302 119 ft 9 kts 189°
2026-05-07 15:16 32.00666 34.87299 117 ft 8 kts 174°
2026-05-07 15:17 32.00629 34.87332 117 ft 6 kts 133°
2026-05-07 15:17 32.00608 34.87351 118 ft 4 kts 150°
2026-05-07 15:17 32.00593 34.87353 119 ft 2 kts 180°
2026-05-07 15:17 32.00591 34.87352 119 ft 0 kts 182°